TimeEST,TemperatureF,Dew PointF,Humidity,Sea Level PressureIn,VisibilityMPH,Wind Direction,Wind SpeedMPH,Gust SpeedMPH,PrecipitationIn,Events,Conditions,WindDirDegrees,DateUTC
12:15 AM,15.4,9.1,76,30.24,10.0,ESE,3.5,-,N/A,,Clear,120,2013-02-07 05:15:00
12:36 AM,17.2,8.6,69,30.24,10.0,ESE,4.6,-,N/A,,Clear,110,2013-02-07 05:36:00
12:55 AM,14.2,5.5,69,30.24,10.0,ESE,4.6,-,N/A,,Clear,110,2013-02-07 05:55:00
1:15 AM,14.7,9.1,79,30.24,10.0,ESE,3.5,-,N/A,,Clear,110,2013-02-07 06:15:00
1:35 AM,18.7,9.7,68,30.24,10.0,ESE,4.6,-,N/A,,Clear,110,2013-02-07 06:35:00
1:55 AM,18.1,9.7,70,30.25,10.0,Calm,Calm,-,N/A,,Clear,0,2013-02-07 06:55:00
2:15 AM,15.1,8.4,75,30.26,10.0,ESE,3.5,-,N/A,,Clear,110,2013-02-07 07:15:00
2:35 AM,18.5,9.9,69,30.26,10.0,East,3.5,-,N/A,,Scattered Clouds,100,2013-02-07 07:35:00
2:55 AM,14.9,8.1,74,30.26,10.0,East,4.6,-,N/A,,Scattered Clouds,80,2013-02-07 07:55:00
3:15 AM,14.9,9.0,77,30.25,10.0,East,4.6,-,N/A,,Scattered Clouds,80,2013-02-07 08:15:00
3:35 AM,16.7,9.9,74,30.25,10.0,East,5.8,-,N/A,,Mostly Cloudy,80,2013-02-07 08:35:00
3:55 AM,18.5,11.1,73,30.24,10.0,East,5.8,-,N/A,,Mostly Cloudy,90,2013-02-07 08:55:00
4:15 AM,21.2,11.3,66,30.25,10.0,ESE,5.8,-,N/A,,Overcast,110,2013-02-07 09:15:00
4:35 AM,21.0,12.4,69,30.25,10.0,East,5.8,-,N/A,,Overcast,80,2013-02-07 09:35:00
4:55 AM,21.0,12.7,70,30.25,10.0,East,5.8,-,N/A,,Overcast,100,2013-02-07 09:55:00
5:15 AM,21.2,12.0,68,30.25,10.0,East,5.8,-,N/A,,Scattered Clouds,100,2013-02-07 10:15:00
5:35 AM,21.2,12.7,70,30.24,10.0,East,8.1,-,N/A,,Clear,90,2013-02-07 10:35:00
5:55 AM,21.6,12.6,68,30.25,10.0,East,5.8,-,N/A,,Scattered Clouds,100,2013-02-07 10:55:00
6:15 AM,21.9,13.5,70,30.25,10.0,East,5.8,-,N/A,,Overcast,80,2013-02-07 11:15:00
6:35 AM,22.3,13.6,69,30.24,10.0,East,6.9,-,N/A,,Overcast,100,2013-02-07 11:35:00
6:55 AM,22.1,13.1,68,30.25,10.0,ESE,4.6,-,N/A,,Overcast,110,2013-02-07 11:55:00
7:15 AM,22.5,13.5,68,30.24,10.0,East,8.1,-,N/A,,Overcast,90,2013-02-07 12:15:00
7:35 AM,23.0,14.0,68,30.24,10.0,East,6.9,-,N/A,,Mostly Cloudy,100,2013-02-07 12:35:00
7:55 AM,23.7,14.4,67,30.24,10.0,East,9.2,-,N/A,,Overcast,100,2013-02-07 12:55:00
8:15 AM,23.9,14.5,67,30.23,10.0,ESE,8.1,-,N/A,,Mostly Cloudy,110,2013-02-07 13:15:00
8:35 AM,24.6,15.1,67,30.24,10.0,ESE,3.5,-,N/A,,Mostly Cloudy,120,2013-02-07 13:35:00
8:56 AM,24.8,14.9,66,30.24,10.0,ESE,3.5,-,N/A,,Scattered Clouds,110,2013-02-07 13:56:00
9:15 AM,25.0,15.4,67,30.23,10.0,East,3.5,-,N/A,,Clear,90,2013-02-07 14:15:00
9:35 AM,25.7,15.8,66,30.22,10.0,ESE,4.6,-,N/A,,Clear,120,2013-02-07 14:35:00
9:55 AM,26.4,16.2,65,30.21,10.0,ESE,6.9,-,N/A,,Mostly Cloudy,110,2013-02-07 14:55:00
10:15 AM,27.5,17.1,65,30.20,10.0,ESE,4.6,-,N/A,,Overcast,120,2013-02-07 15:15:00
10:35 AM,28.6,18.1,65,30.20,10.0,SE,8.1,-,N/A,,Overcast,130,2013-02-07 15:35:00
10:55 AM,29.3,18.7,65,30.19,10.0,ESE,5.8,-,N/A,,Mostly Cloudy,120,2013-02-07 15:55:00
11:15 AM,30.9,19.4,62,30.19,10.0,ESE,5.8,-,N/A,,Scattered Clouds,110,2013-02-07 16:15:00
11:35 AM,32.4,20.8,63,30.18,10.0,ESE,6.9,-,N/A,,Clear,110,2013-02-07 16:35:00
11:55 AM,34.3,21.6,60,30.17,10.0,ESE,8.1,-,N/A,,Clear,110,2013-02-07 16:55:00
12:15 PM,34.2,22.1,61,30.15,10.0,ESE,6.9,-,N/A,,Scattered Clouds,110,2013-02-07 17:15:00
12:35 PM,36.5,22.8,58,30.14,10.0,ESE,6.9,-,N/A,,Mostly Cloudy,120,2013-02-07 17:35:00
12:56 PM,38.3,23.2,55,30.13,10.0,SE,6.9,-,N/A,,Clear,140,2013-02-07 17:56:00
1:15 PM,38.5,22.8,53,30.11,10.0,ESE,6.9,-,N/A,,Clear,120,2013-02-07 18:15:00
1:35 PM,38.7,23.4,54,30.10,10.0,ESE,6.9,-,N/A,,Clear,120,2013-02-07 18:35:00
1:56 PM,38.8,23.2,53,30.08,10.0,ESE,10.4,-,N/A,,Clear,110,2013-02-07 18:56:00
2:15 PM,40.3,23.2,51,30.07,10.0,SE,8.1,-,N/A,,Clear,130,2013-02-07 19:15:00
2:35 PM,41.9,22.8,47,30.06,10.0,ESE,9.2,-,N/A,,Clear,110,2013-02-07 19:35:00
2:55 PM,43.3,23.0,45,30.06,10.0,East,6.9,-,N/A,,Clear,100,2013-02-07 19:55:00
3:15 PM,42.8,23.4,46,30.06,10.0,East,5.8,-,N/A,,Clear,100,2013-02-07 20:15:00
3:35 PM,42.3,23.5,48,30.05,10.0,ESE,8.1,-,N/A,,Clear,120,2013-02-07 20:35:00
3:55 PM,41.9,24.1,49,30.04,10.0,ESE,8.1,-,N/A,,Clear,120,2013-02-07 20:55:00
4:15 PM,41.9,24.4,50,30.03,10.0,ESE,9.2,-,N/A,,Clear,110,2013-02-07 21:15:00
4:35 PM,42.6,24.6,49,30.02,10.0,ESE,9.2,-,N/A,,Clear,110,2013-02-07 21:35:00
4:56 PM,41.9,24.6,50,30.01,10.0,ESE,11.5,16.1,N/A,,Clear,110,2013-02-07 21:56:00
5:15 PM,40.8,24.8,53,30.00,10.0,ESE,9.2,-,N/A,,Clear,110,2013-02-07 22:15:00
5:35 PM,40.1,25.2,55,29.99,10.0,East,8.1,-,N/A,,Clear,100,2013-02-07 22:35:00
5:55 PM,39.2,25.2,57,29.99,10.0,ESE,11.5,-,N/A,,Clear,110,2013-02-07 22:55:00
6:15 PM,37.9,25.3,60,29.99,10.0,East,8.1,-,N/A,,Clear,100,2013-02-07 23:15:00
6:35 PM,37.8,25.2,60,29.99,10.0,East,8.1,-,N/A,,Clear,100,2013-02-07 23:35:00
6:55 PM,37.4,25.2,61,29.99,10.0,ESE,9.2,-,N/A,,Clear,110,2013-02-07 23:55:00
7:15 PM,36.9,25.2,63,29.99,10.0,ESE,8.1,-,N/A,,Clear,120,2013-02-08 00:15:00
7:35 PM,36.5,25.3,64,29.97,10.0,ESE,8.1,-,N/A,,Clear,110,2013-02-08 00:35:00
7:55 PM,36.1,25.3,65,29.96,10.0,ESE,8.1,-,N/A,,Clear,110,2013-02-08 00:55:00
8:15 PM,35.6,25.3,66,29.96,10.0,ESE,5.8,-,N/A,,Clear,120,2013-02-08 01:15:00
8:35 PM,34.9,25.2,68,29.95,10.0,ESE,8.1,-,N/A,,Clear,110,2013-02-08 01:35:00
8:56 PM,34.3,25.2,69,29.94,10.0,ESE,6.9,-,N/A,,Clear,110,2013-02-08 01:56:00
9:15 PM,34.2,25.3,70,29.94,10.0,ESE,6.9,-,N/A,,Clear,110,2013-02-08 02:15:00
9:35 PM,33.6,25.0,71,29.93,10.0,ESE,6.9,-,N/A,,Clear,110,2013-02-08 02:35:00
9:55 PM,33.4,25.2,72,29.93,10.0,ESE,6.9,-,N/A,,Clear,110,2013-02-08 02:55:00
10:15 PM,33.8,25.5,72,29.92,10.0,ESE,8.1,-,N/A,,Clear,110,2013-02-08 03:15:00
10:35 PM,33.8,25.7,72,29.92,10.0,ESE,9.2,-,N/A,,Clear,120,2013-02-08 03:35:00
10:55 PM,34.2,26.2,73,29.90,10.0,ESE,10.4,-,N/A,,Scattered Clouds,120,2013-02-08 03:55:00
11:15 PM,34.5,26.4,72,29.90,10.0,ESE,9.2,-,N/A,,Clear,110,2013-02-08 04:15:00
11:35 PM,34.7,27.0,73,29.89,10.0,ESE,8.1,-,N/A,,Clear,120,2013-02-08 04:35:00
11:56 PM,34.7,27.1,74,29.87,10.0,ESE,6.9,-,N/A,,Clear,120,2013-02-08 04:56:00